Wind_Speed
23 36 38 37 36 40 40 38 37 35 33 32 32 31 30 28 28 29 27 24 26 23 24 22 21 21 23 24 24 25 25 27 27 26 26 25 24 25 25 27 29 29 27
31 38 41 39 38 40 41 38 36 35 33 32 32 32 33 31 28 26 26 28 25 24 24 23 22 23 22 22 23 23 25 26 25 24 24 25 23 22 21 23 23 25 24
29 41 43 41 39 40 40 38 36 34 34 33 34 35 35 33 30 31 30 28 28 27 25 24 22 22 23 22 22 22 23 25 27 25 23 22 20 20 19 20 22 23 24
29 41 43 42 41 40 40 39 36 34 33 34 35 35 35 35 36 33 30 30 29 27 23 23 23 22 23 24 23 22 23 24 25 26 24 24 22 19 20 20 21 22 23
29 38 41 41 42 41 39 40 37 35 33 34 35 34 34 37 36 33 32 32 31 28 23 23 24 23 21 22 21 22 22 24 25 25 23 23 23 20 19 19 20 20 22
28 35 32 41 39 40 40 40 37 36 34 33 34 34 35 35 33 35 34 33 28 23 23 22 22 24 22 20 25 25 23 21 25 26 25 22 23 20 21 19 20 20 21
30 35 34 41 40 40 40 40 38 36 36 34 35 34 33 34 33 34 35 33 29 24 23 22 23 25 22 24 24 24 22 22 26 26 24 21 21 20 22 21 20 20 19
32 35 36 42 40 41 41 40 40 39 38 36 36 35 34 32 33 34 34 32 29 28 25 22 24 24 20 22 23 23 23 25 27 26 22 22 20 20 20 21 20 20 19
15 34 35 43 40 41 42 41 40 40 39 38 38 36 35 33 34 33 33 30 29 27 27 25 26 23 20 25 25 21 22 26 27 23 23 21 21 19 19 20 20 19 19
14 19 34 39 43 42 42 42 42 42 41 39 39 39 37 31 31 32 30 27 25 27 27 26 27 24 23 28 26 23 23 25 26 24 23 22 21 20 19 19 20 20 19
31 16 9 38 42 45 45 44 43 43 42 41 40 38 36 32 32 30 28 26 26 25 27 27 29 25 29 28 27 23 23 25 25 24 22 22 21 21 20 19 19 19 19
32 33 28 11 39 42 44 45 45 45 44 43 42 42 39 36 35 34 29 26 26 27 26 26 27 27 29 31 29 25 25 27 24 23 21 20 20 19 21 18 19 18 18
27 33 33 31 18 42 41 40 43 46 45 44 45 45 41 38 36 34 31 28 30 28 26 27 30 27 27 31 29 26 26 26 25 22 20 19 18 18 19 18 18 17 17
27 29 36 33 26 19 41 43 40 43 42 40 44 44 43 42 38 36 36 34 33 32 32 31 32 26 27 30 28 27 27 26 26 21 20 18 18 17 17 17 17 17 16
28 29 33 34 30 23 18 42 45 44 41 41 44 46 45 43 40 39 37 37 35 36 33 34 32 25 30 31 29 26 27 26 25 22 21 19 17 17 16 16 15 15 15
26 29 32 36 34 28 25 28 42 44 41 39 45 48 48 46 44 42 41 40 40 37 34 36 32 29 32 31 29 27 27 26 25 24 22 20 17 16 15 16 13 13 13
23 35 31 34 31 34 32 22 36 40 43 41 45 49 50 48 47 47 46 42 43 40 36 37 30 30 32 31 29 27 27 26 24 23 22 21 19 16 15 14 13 12 12
29 25 31 31 31 34 33 27 21 37 45 45 46 50 51 50 50 46 46 44 45 42 39 41 34 32 34 33 30 27 25 24 23 21 21 20 21 20 17 14 12 11 9
25 31 28 30 28 30 33 29 23 29 26 43 45 49 50 55 51 50 49 48 49 46 42 43 36 35 37 34 30 26 24 22 21 20 19 19 18 18 18 19 17 14 9
8 20 28 26 22 28 33 30 24 30 33 30 45 50 52 49 53 49 48 53 51 46 46 43 40 36 38 37 32 26 21 19 18 18 18 17 16 15 14 14 16 17 13
22 17 22 22 23 25 26 26 26 24 27 33 29 34 52 46 45 42 48 53 48 44 48 48 43 41 37 39 33 23 17 15 15 16 16 16 16 14 13 13 15 15 15
25 22 17 13 17 26 23 23 24 21 28 28 34 30 31 44 41 41 40 52 49 43 45 48 48 35 36 40 19 14 3 2 10 13 15 16 15 14 14 14 15 15 13
24 28 26 22 25 21 19 23 26 30 27 27 35 32 35 39 26 31 37 35 44 44 47 51 47 38 34 34 33 10 3 4 6 12 18 18 18 18 16 16 16 15 13
25 26 23 22 29 27 16 19 22 34 21 22 30 37 38 18 27 33 47 46 49 43 39 44 45 38 34 32 35 13 8 12 4 2 15 22 20 22 21 20 19 17 15
26 29 31 26 29 28 14 18 26 32 26 28 33 40 40 43 46 54 54 50 49 46 50 50 44 40 42 36 33 21 13 11 9 5 3 12 23 26 24 23 22 19 18
24 27 29 30 31 26 22 16 18 35 32 31 32 35 36 39 45 47 52 52 57 57 57 57 55 50 47 43 41 32 23 10 9 7 3 4 9 22 27 26 25 23 21
Wind_Direction
187 175 175 177 172 167 167 168 165 163 160 158 154 151 147 145 142 141 140 141 135 126 118 115 112 115 112 108 104 100 101 98 98 97 93 89 83 82 85 90 90 86 80
193 182 177 178 172 170 168 170 169 166 163 162 159 155 151 147 146 147 141 136 135 129 123 122 119 120 115 111 112 109 107 105 103 102 101 95 87 86 90 91 92 90 90
188 179 178 177 173 172 170 172 172 169 167 163 160 156 152 150 148 146 142 141 134 127 123 120 120 118 117 112 106 108 110 112 112 107 103 104 93 86 87 92 92 92 90
184 174 178 179 176 171 171 172 172 171 166 164 161 157 154 150 148 147 145 142 135 129 128 124 123 118 116 116 108 107 109 116 111 110 110 105 102 93 89 86 88 90 90
178 177 180 182 178 173 172 170 171 171 165 165 163 160 157 152 150 151 149 143 141 138 132 128 127 124 122 122 118 116 112 116 114 109 104 102 105 97 95 91 89 87 89
183 179 180 182 182 177 175 172 170 170 167 168 166 162 158 156 156 155 152 150 144 141 137 132 130 127 123 122 124 122 122 121 118 110 108 106 104 104 99 94 93 92 92
185 184 182 186 184 182 179 176 171 172 170 173 168 165 162 162 161 157 156 152 146 145 145 137 135 131 122 123 125 129 128 124 117 111 108 106 107 105 104 100 98 94 92
188 188 188 188 188 185 183 179 175 175 174 176 171 169 165 166 163 162 159 155 153 150 147 142 138 135 131 132 133 132 131 126 118 115 111 110 108 106 105 104 101 98 95
225 187 185 188 191 188 186 183 179 179 178 178 175 172 168 166 165 164 161 158 155 145 147 144 141 136 132 136 138 135 133 131 123 117 116 114 114 111 109 106 104 101 99
349 205 184 189 191 193 190 188 183 183 182 181 176 170 167 166 170 167 165 163 156 148 149 148 142 139 134 144 143 138 134 130 126 124 122 121 117 113 109 108 107 105 102
344 345 247 190 193 196 193 194 190 188 185 182 178 177 170 176 178 175 168 164 159 158 153 150 144 141 143 145 143 141 140 133 128 122 122 123 119 117 114 110 107 106 104
331 328 323 303 196 198 198 196 196 191 187 184 181 175 179 176 177 174 173 173 162 156 151 153 149 142 148 147 145 143 138 136 130 125 122 123 121 119 118 114 110 109 106
314 318 312 315 330 207 198 195 194 194 187 184 181 178 177 176 170 167 166 166 157 154 153 159 159 147 148 149 148 145 141 140 133 127 128 124 121 121 119 117 115 111 108
317 307 309 308 313 245 207 198 192 192 184 181 181 177 176 178 174 168 164 164 163 162 165 167 158 150 150 153 151 147 145 142 136 134 131 128 125 123 121 119 117 114 111
304 300 301 301 309 317 268 212 201 192 187 182 179 181 178 175 174 171 169 168 173 170 168 164 160 151 151 153 152 151 148 144 140 139 136 133 130 127 124 119 120 118 115
288 287 293 300 296 308 307 246 214 199 189 184 178 182 182 178 175 173 172 173 174 174 169 167 158 152 153 154 153 154 153 151 149 146 142 138 135 132 128 123 123 121 119
275 277 282 290 295 293 309 304 236 204 191 185 180 181 183 182 178 179 175 174 176 174 169 167 155 151 154 155 154 155 156 156 155 153 150 145 139 136 134 129 129 128 128
282 267 276 287 295 286 293 288 285 210 197 185 182 183 185 186 181 178 177 174 176 172 170 169 161 154 156 156 154 156 158 159 158 160 158 155 152 148 140 138 135 134 134
279 279 280 281 286 281 285 291 299 228 208 182 183 183 185 190 181 179 179 177 178 171 170 172 166 162 158 156 153 154 156 161 164 166 166 166 167 165 162 156 150 146 144
316 288 273 273 279 286 286 285 293 235 216 210 186 186 186 186 184 179 176 177 174 168 169 173 168 162 158 154 149 145 151 159 167 172 175 177 179 180 178 171 166 159 153
345 324 310 267 274 282 281 279 290 210 212 206 210 188 181 182 181 179 174 172 170 167 169 173 167 160 152 156 136 127 129 151 169 178 184 188 190 194 188 184 183 176 173
344 343 321 320 258 260 261 267 266 245 204 200 195 188 171 168 178 177 175 169 170 164 166 170 167 153 156 157 154 125 125 160 192 192 195 198 197 198 199 189 190 193 194
342 338 329 318 303 270 252 263 273 273 195 186 180 176 167 176 173 186 168 167 157 165 166 172 173 169 166 173 167 147 138 192 150 208 212 210 210 209 211 206 202 201 203
335 331 324 317 305 293 253 257 267 271 174 180 170 169 175 182 194 202 191 173 167 161 165 172 180 179 174 179 183 191 174 145 160 171 215 220 215 217 216 214 215 210 209
332 332 335 329 311 291 270 238 270 283 197 175 169 177 185 179 184 191 189 188 186 183 189 184 181 187 188 185 184 187 175 166 154 139 174 205 218 220 218 220 221 218 218
335 337 340 332 314 301 275 227 278 270 190 173 174 176 176 178 180 183 183 186 189 190 192 193 196 196 196 196 194 197 182 169 179 155 127 168 206 219 217 223 223 222 223
Height
755 756 760 765 770 769 773 780 782 784 787 790 792 794 797 802 806 809 814 817 819 821 823 825 827 827 829 830 831 832 832 833 833 833 835 836 838 838 838 837 836 836 838
744 752 758 764 767 769 771 779 783 785 788 791 793 795 796 802 806 811 814 818 821 823 825 828 830 830 832 833 833 834 835 836 836 838 838 840 842 842 843 842 841 840 841
744 750 757 761 765 769 769 777 783 787 789 791 794 795 797 800 806 811 814 819 822 825 827 829 832 833 834 836 836 837 838 839 840 841 843 844 846 847 847 846 845 844 844
745 750 757 760 764 768 768 774 782 787 791 792 795 797 798 801 805 811 815 819 822 826 829 831 833 836 837 838 840 841 841 842 844 844 845 846 847 850 851 851 850 849 848
750 751 757 762 764 767 770 771 779 786 791 794 796 799 801 803 806 810 815 819 822 825 831 833 834 836 839 840 841 843 845 845 847 848 849 849 849 852 853 853 854 854 853
751 754 758 760 766 768 769 772 778 784 791 794 798 801 803 806 809 811 815 818 822 826 830 834 835 837 840 842 842 843 846 848 848 850 851 852 853 855 855 857 857 857 856
748 751 755 762 763 768 772 772 776 783 789 794 797 801 804 807 810 813 815 819 821 826 831 834 836 839 841 843 844 844 847 849 851 852 854 855 855 857 857 858 859 860 861
741 748 753 759 763 766 770 774 777 781 787 792 797 801 805 808 811 814 817 820 822 825 831 834 836 839 842 844 846 847 848 850 853 853 856 858 860 860 861 860 861 862 863
753 744 751 757 762 766 769 772 777 781 785 790 795 801 805 808 811 816 819 821 824 827 830 834 837 840 842 845 847 849 851 852 853 856 857 861 862 863 864 864 864 866 866
757 757 750 757 759 764 767 771 774 779 784 789 794 799 804 808 812 815 820 823 826 829 832 834 838 841 842 845 848 852 853 856 856 857 859 862 864 865 867 867 867 869 870
759 756 758 754 757 761 763 768 772 777 782 788 794 800 805 808 812 816 819 824 827 830 833 835 839 841 843 847 849 853 855 858 860 861 862 864 865 866 869 870 871 871 873
764 759 759 755 755 757 761 764 769 774 779 786 791 796 803 806 810 814 819 823 828 831 835 837 840 842 845 846 851 854 857 859 863 864 866 867 868 869 869 873 873 874 874
768 763 761 758 753 755 758 761 765 771 776 782 788 793 798 804 809 814 819 823 828 832 835 838 840 843 846 848 851 855 858 861 863 867 868 870 871 872 872 874 875 876 877
761 762 760 759 757 754 754 757 761 766 772 777 783 789 792 800 806 811 816 821 826 829 832 836 840 843 846 850 853 856 859 862 863 868 869 872 873 875 876 876 877 878 880
757 759 757 757 755 751 752 753 753 759 767 771 777 783 789 794 801 807 813 817 823 828 832 836 840 843 846 851 855 858 861 864 865 868 870 872 876 876 878 878 880 880 882
758 758 757 754 754 752 752 752 751 755 761 766 770 777 784 789 795 801 809 812 819 826 832 835 839 842 847 851 855 859 862 864 866 869 871 873 876 878 879 879 883 883 884
760 757 753 751 750 749 748 749 750 750 754 759 764 770 778 785 790 796 803 810 816 823 830 837 840 844 847 852 856 860 862 865 868 871 872 875 876 879 880 881 883 885 885
749 749 749 747 744 746 748 747 744 747 743 748 756 765 771 779 784 792 800 806 813 821 827 833 837 842 847 852 856 861 864 866 869 872 874 876 877 879 880 882 884 886 888
742 742 739 746 743 743 743 744 741 735 716 731 748 755 765 771 777 785 793 801 809 816 823 830 835 839 844 851 857 862 865 867 870 873 875 877 879 879 880 880 882 885 889
746 746 750 739 732 738 739 739 735 736 737 736 739 746 756 765 772 778 785 793 804 811 818 827 832 840 843 849 856 862 865 869 871 873 875 877 879 880 881 881 883 884 887
743 738 730 734 730 734 739 737 730 726 734 737 733 734 745 758 767 773 776 787 797 806 811 820 829 836 843 848 853 863 867 870 872 873 874 876 877 879 879 880 883 883 885
746 739 747 738 737 735 735 735 734 726 731 735 738 742 737 748 763 761 773 777 788 800 809 815 822 833 842 845 850 858 870 874 872 873 873 874 875 877 879 878 880 882 883
747 741 734 736 736 737 726 729 729 729 728 732 735 743 744 751 750 773 768 776 775 792 800 809 817 823 833 840 845 845 864 864 867 869 871 872 872 873 877 878 878 879 881
745 744 744 734 732 731 720 720 727 733 717 723 730 738 746 740 756 759 772 772 779 782 799 806 816 822 829 834 841 840 841 845 856 866 866 869 869 870 872 874 876 876 877
745 737 729 727 730 727 716 718 720 720 715 720 727 734 742 747 747 758 766 772 776 780 792 802 810 818 825 830 831 835 839 842 844 848 860 862 865 865 867 870 873 873 874
750 739 731 728 727 721 720 713 713 716 709 714 722 728 734 742 748 755 754 761 766 775 785 793 798 808 816 826 828 831 830 833 837 840 849 855 857 860 861 867 869 869 872